Misión y Visión

La misión es proporcionar información fiable a la navegación aérea, contribuyendo a la seguridad, regularidad y eficiencia de la Navegación Aérea Internacional

La visión es contribuir sustancialmente al desarrollo de conocimientos y a la utilización de la meteorología aeronáutica a nivel nacional e internacional, mediante la innovación y la coparticipación con sectores sociales y productivos de la sociedad.

 
  Inicio
  Metar
  Taf
  Wintemp
  SIGMET
  Avisos
  Pronósticos
  Carpeta Meteorologica
  Imágenes Satelitales
  Climatología Aeronáutica
   
  ¿Quienes Somos?
  Contacto
  Eventos
  Publicaciones
  Politica de la Calidad
Taf


DIRECCIONES PARA INFORMES NACIONALES E INTERNACIONALES
(Metar /Speci - TAF)

http://adds.aviationweather.gov/tafs/index.php

http://www.ogimet.com/metars.phtml

PRONÓSTICOS DE AERÓDROMO

Cuando sea necesario, el encabezamiento abreviado puede incluir un cuarto grupo consistente en tres letras para identificar los boletines demorados (RRA), corregidos (CCA) o enmendados (AAA). Los boletines adicionales demorados, corregidos o enmendados deben identificarse con las letras RRB, RRC, etc.; CCB, CCC,etc.;AAB, AAC,etc.

 

DÍA 28/07/2014

 

TAF

MPTO

TAF MPTO 281700Z 2818/2918 18004KT 9999 SCT018 
PROB30 TEMPO 2820/2824 7000 -TSRA SCT015CB SCT090 
BECMG 2900/2904 05005KT FEW018=  

TAF

MPPA(MPHO)

TAF MPPA 281700Z 2818/2918 35005KT 9999 SCT018
PROB30 TEMPO 2820/2824 21005KT 7000 -TSRA SCT015CB SCT090
BECMG 2900/2904 35007KT FEW018=

TAF

MPMG


TAF MPMG 281700Z 2818/2906 32004KT 9999 SCT018
PROB30 TEMPO 2820/2824 19005KT 5000 TSRA SCT015CB SCT090 BECMG 2900/2904 FEW018 SCT090=

TAF

MPDA

TAF MPDA 281700Z 2818/2906 18005KT 9999 SCT018 
PROB30 TEMPO 2820/2824 5000 TSRA SCT015CB BKN090 
BECMG 2900/2904 00000KT FEW018 SCT090=

 
 











  Noticias AAC
  Directorio
  Contáctenos
  Historia
  Quejas y Sugerencias
  Etica y Transparencia

  Gestión SSP/SMS
  Seguridad Aérea
  Navegación Aérea
  Transporte Aéreo

  Tramites
  Áeronaves de Alquiler

  Meteorología
  I.S.F.P.A
  Notam
  Peligro Aviario
  AVSEC
  UPIA
  Permisos
 




DECLARACIÓN DE PRIVACIDAD